St. Johnsbury, VT

8:47 PM EDT on October 15, 2018 (GMT -0400)
St. Johnsbury

Weather History for K1V4 - September, 2016

Change the Weather History Date:

Monday, September 19, 2016

  Actual Average Record
Temperature  
Mean Temperature 69 °F 59 °F  
Max Temperature 74 °F 70 °F 80 °F (2015)
Min Temperature 64 °F 48 °F 29 °F (1943)
Degree Days  
Heating Degree Days 0 7  
Month to date heating degree days 51 83  
Since 1 July heating degree days 78 133  
Cooling Degree Days 4 1  
Month to date cooling degree days 41 30  
Year to date cooling degree days 449 428  
Growing Degree Days 18 (Base 50)    
Moisture  
Dew Point 65 °F    
Average Humidity 87    
Maximum Humidity 100    
Minimum Humidity 73    
Precipitation  
Precipitation 0.13 in 0.12 in 0.16 in (2006)
Month to date precipitation 1.14 2.00  
Year to date precipitation 29.08 27.76  
Sea Level Pressure  
Sea Level Pressure 30.02 in    
Wind  
Wind Speed - (North)    
Max Wind Speed -    
Max Gust Speed -    
T = Trace of Precipitation, MM = Missing Value Source: NWS Daily Summary

Daily Weather History Graph

Daily Weather History Graph

Search for Another Location

Airport or City:

Astronomy

Sep. 19, 2016 Rise Set
Actual Time 6:32 AM EDT 6:50 PM EDT
Civil Twilight 6:03 AM EDT 7:19 PM EDT
Nautical Twilight 5:28 AM EDT 7:53 PM EDT
Astronomical Twilight 4:53 AM EDT 8:28 PM EDT
Moon 8:51 PM EDT (9/19) 9:46 AM EDT (9/19)
Length of Visible Light 13h 16m
Length of Day
12h 17m
Waning Gibbous, 88% of the Moon is Illuminated
Sep 19
Waning Gibbous
Sep 23
Last Quarter
Sep 30
New
Oct 9
First Quarter
Oct 16
Full

Hourly Weather History & Observations

Time (EDT) Temp. Dew Point Humidity Pressure Visibility Wind Dir Wind Speed Gust Speed Precip Events Conditions
12:54 AM 64.9 °F 64.0 °F 97% 30.00 in - North - - N/A   Unknown
1:54 AM 64.0 °F 64.0 °F 100% 30.00 in - North - - N/A   Unknown
2:54 AM 64.0 °F 64.0 °F 100% 29.99 in - North - - 0.01 in   Unknown
3:54 AM 64.0 °F 64.0 °F 100% 30.00 in - North - - 0.05 in   Unknown
4:54 AM 66.0 °F 64.9 °F 96% 29.99 in - North - - 0.03 in   Unknown
5:54 AM 64.9 °F 64.9 °F 100% 29.99 in - North - - 0.03 in   Unknown
6:54 AM 64.9 °F 64.9 °F 100% 29.98 in - North - - N/A   Unknown
7:54 AM 66.0 °F 64.9 °F 96% 30.02 in - North - - 0.01 in   Unknown
8:54 AM 66.0 °F 64.9 °F 96% 30.02 in - North - - N/A   Unknown
9:54 AM 68.0 °F 64.9 °F 90% 30.03 in - North - - N/A   Unknown
10:54 AM 68.0 °F 64.9 °F 90% 30.03 in - North - - N/A   Unknown
11:54 AM 69.1 °F 63.0 °F 81% 30.02 in - North - - N/A   Unknown
12:54 PM 71.1 °F 64.9 °F 81% 30.02 in - North - - N/A   Unknown
1:54 PM 71.1 °F 64.9 °F 81% 30.03 in - North - - N/A   Unknown
2:54 PM 72.0 °F 64.9 °F 78% 30.02 in - North - - N/A   Unknown
3:54 PM 73.0 °F 64.9 °F 76% 30.01 in - North - - N/A   Unknown
4:54 PM 73.9 °F 66.0 °F 76% 30.00 in - North - - N/A   Unknown
5:54 PM 72.0 °F 64.9 °F 78% 30.00 in - North - - N/A   Unknown
6:54 PM 70.0 °F 66.0 °F 87% 30.01 in - North - - N/A   Unknown
7:54 PM 66.9 °F 66.0 °F 97% 30.02 in - North - - N/A   Unknown
8:54 PM 66.0 °F 64.9 °F 96% 30.05 in - North - - N/A   Unknown
9:54 PM 64.9 °F 64.0 °F 97% 30.06 in - North - - N/A   Unknown
10:54 PM 64.0 °F 64.0 °F 100% 30.07 in - North - - N/A   Unknown
11:54 PM 64.0 °F 64.0 °F 100% 30.08 in - North - - N/A   Unknown